SCP
0 0 0 0 0 0 0 0 0 0 0 0 0 0 0 0 0 0 0 0 0 0 0 0 0 0 0 0 0 0 0 0 0 0 0 0 0 0 0 0 0 0 0
0 0 0 0 0 0 0 0 0 0 0 0 0 0 0 0 0 0 0 0 0 0 0 0 0 0 0 0 0 0 0 0 0 0 0 0 0 0 0 0 0 0 0
0 0 0 0 0 0 0 0 0 0 0 0 0 0 0 0 0 0 0 0 0 0 0 0 0 0 0 0 0 0 0 0 0 0 0 0 0 0 0 0 0 0 0
0 0 0 0 0 0 0 0 0 0 0 0 0 0 0 0 0 0 0 0 0 0 0 0 0 0 0 0 0 0 0 0 0 0 0 0 0 0 0 0 0 0 0
0 0 0 0 0 0 0 0 0 0 0 0 0 0 0 0 0 0 0 0 0 0 0 0 0 0 0 0 0 0 0 0 0 0 0 0 0 0 0 0 0 0 0
0 0 0 0 0 0 0 0 0 0 0 0 0 0 0 0 0 0 0 0 0 0 0 0 0 0 0 0 0 0 0 0 0 0 0 0 0 0 0 0 0 0 0
0 0 0 0 0 0 0 0 0 0 0 0 0 0 0 0 0 0 0 0 0 0 0 0 0 0 0 0 0 0 0 0 0 0 0 0 0 1 1 0 0 0 0
0 0 0 0 0 0 0 0 0 0 0 0 0 0 0 0 0 0 0 0 0 0 0 0 0 0 0 0 0 0 0 0 0 0 0 0 0 1 1 0 0 0 0
0 0 0 0 0 0 0 0 0 0 0 0 0 0 0 0 0 0 0 0 0 0 0 0 0 0 0 0 0 0 0 0 0 0 0 0 1 1 0 0 1 1 1
0 0 0 0 0 0 0 0 0 0 0 0 0 0 0 0 0 0 0 0 0 0 0 0 0 0 0 0 0 0 0 0 0 0 0 0 1 1 0 0 1 1 1
0 0 0 0 0 0 0 0 0 0 0 0 0 0 0 0 0 0 0 0 0 0 0 0 0 0 0 0 0 0 0 0 0 0 0 1 1 1 0 0 0 1 1
0 0 0 0 0 0 0 0 0 0 0 0 0 0 0 0 0 0 0 0 0 0 0 0 0 0 0 0 0 0 0 0 0 0 0 1 1 0 0 0 0 1 1
0 0 0 0 0 0 0 0 0 0 0 0 0 0 0 0 0 0 0 0 0 0 0 0 0 0 0 0 0 0 0 0 0 0 1 1 1 0 0 0 0 1 1
0 0 0 0 0 0 0 0 0 0 0 0 0 0 0 0 0 0 0 0 0 0 0 0 0 0 0 0 0 0 0 0 0 0 1 1 1 1 0 0 0 1 1
0 0 1 1 1 1 0 0 0 0 0 0 0 0 0 0 0 0 0 0 0 0 0 0 0 0 0 0 0 0 0 0 0 0 0 1 1 1 0 0 0 0 1
1 1 1 1 1 1 1 1 0 0 0 0 0 0 0 0 0 0 0 0 0 0 0 0 0 0 0 0 0 0 0 0 0 0 0 0 0 0 0 0 0 0 0
1 1 1 1 1 1 1 1 1 1 0 0 0 0 0 0 0 0 0 0 0 0 0 0 0 0 0 0 0 0 0 0 0 0 0 0 0 0 0 0 0 0 0
1 1 1 1 1 1 1 1 1 1 1 1 1 1 1 0 0 0 0 0 0 0 0 0 0 0 0 0 0 0 0 0 0 0 0 0 0 0 0 0 0 0 0
1 1 1 1 1 1 1 2 2 2 2 1 1 1 1 1 0 0 0 0 0 0 0 0 0 0 0 0 0 0 0 0 0 0 0 0 0 0 0 0 0 0 0
2 2 1 1 1 2 2 2 3 3 3 2 2 1 1 1 1 1 0 0 0 0 0 0 0 0 0 0 0 0 0 0 0 0 0 0 0 0 0 0 0 0 0
2 2 2 2 2 2 3 3 4 4 4 3 3 2 2 1 1 1 1 1 0 0 0 0 0 0 0 0 0 0 0 0 0 0 0 0 0 0 0 0 0 0 0
3 3 3 3 3 3 3 4 4 5 5 4 4 3 3 2 2 1 1 1 1 1 1 0 0 0 0 0 0 0 0 0 0 0 0 0 0 0 0 0 0 0 0
3 3 3 3 3 3 4 4 4 5 5 5 4 4 4 3 2 2 1 1 1 1 1 1 1 1 1 1 0 0 0 0 0 0 0 0 0 0 0 0 0 0 0
3 3 3 3 4 4 4 4 4 4 4 4 5 5 5 4 3 2 2 1 1 1 1 1 1 1 1 1 1 1 1 1 1 0 0 0 0 0 0 0 0 0 0
4 4 4 4 4 4 4 4 4 4 4 4 5 5 5 5 4 3 2 2 2 1 1 1 1 1 1 1 1 1 1 1 1 1 0 1 0 0 0 0 0 0 0
4 4 5 5 5 4 4 4 3 3 4 4 4 5 5 5 5 3 2 2 2 1 1 1 1 1 1 1 1 1 1 1 1 1 1 1 1 0 0 0 0 0 0
Wind_Speed
11 14 16 13 13 13 13 12 13 15 16 16 15 13 12 11 10 9 9 9 8 8 9 9 9 8 9 9 11 12 12 12 12 12 11 11 11 10 9 7 6 11 10
13 15 16 14 13 12 13 12 12 14 16 16 15 14 12 11 10 10 9 9 8 8 9 9 8 9 9 10 11 12 12 11 11 11 10 10 10 9 8 7 9 9 8
14 15 16 14 13 12 12 12 13 13 15 16 15 14 13 11 10 10 9 9 9 8 8 8 8 9 9 10 10 11 11 10 11 10 9 8 9 8 7 8 8 8 8
14 14 14 15 13 12 12 12 12 13 14 14 14 13 12 11 10 9 9 9 9 8 8 8 8 9 9 9 9 10 10 10 10 9 8 6 7 10 7 7 7 6 7
13 13 14 14 13 12 12 11 11 12 13 13 13 12 11 10 10 9 8 8 8 7 7 7 7 7 9 9 9 9 8 9 9 11 5 4 4 11 8 8 7 7 6
13 12 15 13 13 12 11 11 11 12 12 12 12 11 10 9 9 9 8 7 7 6 5 6 6 6 7 8 8 8 8 8 10 9 6 6 4 11 9 8 8 7 7
13 12 14 12 12 11 10 10 10 10 10 10 10 9 9 8 8 8 7 6 6 5 4 5 5 6 7 7 7 7 8 9 11 6 7 7 4 11 10 9 9 8 8
12 12 14 12 12 11 10 10 9 9 9 9 8 8 7 7 7 7 6 6 5 4 4 4 5 6 6 7 7 7 7 9 10 7 7 8 6 7 9 10 10 10 10
11 10 11 13 12 11 9 9 9 9 9 8 8 8 7 7 6 6 5 5 5 5 5 6 6 6 6 7 8 8 8 8 10 6 7 5 7 7 10 12 12 12 12
10 10 10 10 11 11 11 10 8 9 9 9 8 8 8 7 8 7 8 7 6 6 7 7 7 7 7 7 8 9 9 9 13 10 6 5 6 7 11 13 13 13 14
10 9 9 10 9 9 9 11 10 9 8 9 10 10 8 9 9 9 7 6 6 7 7 8 8 8 8 10 10 9 9 9 11 8 7 5 6 7 10 11 13 15 15
12 11 9 10 10 9 7 8 7 8 9 8 6 8 8 5 4 5 8 5 7 8 9 9 9 9 10 9 12 13 9 11 10 8 6 7 6 10 13 13 13 14 16
12 12 10 10 9 9 7 6 5 5 5 7 7 6 5 4 5 5 4 7 8 9 8 9 10 8 7 5 5 6 7 7 6 6 5 9 7 12 14 14 14 14 16
13 13 12 11 10 9 7 6 6 6 5 6 7 8 6 5 4 4 3 4 4 4 3 4 3 4 4 5 6 6 7 6 6 4 2 4 7 11 13 14 13 14 15
13 13 12 11 11 9 8 6 7 7 6 7 6 7 7 6 6 5 4 3 6 4 4 5 4 3 4 5 5 6 7 7 7 6 4 7 10 10 11 12 13 14 15
14 14 13 13 12 10 9 8 6 7 6 7 7 8 9 7 5 4 5 5 6 5 5 4 5 4 5 4 5 5 6 7 6 7 7 6 10 10 9 11 12 14 15
13 13 13 13 12 12 12 11 8 8 8 8 7 8 8 8 6 6 6 5 5 6 6 5 6 5 5 4 5 6 6 6 7 6 7 6 5 8 9 8 10 13 14
11 12 12 11 13 13 12 10 9 8 8 7 7 7 9 9 8 7 6 6 5 5 4 5 5 5 4 4 4 4 5 5 6 6 6 5 5 5 5 4 7 11 13
11 11 12 13 13 13 13 10 10 8 7 7 7 7 8 9 9 8 7 6 7 5 5 5 3 4 4 4 4 4 5 5 5 6 6 6 5 5 7 3 7 10 11
11 11 11 12 12 12 10 8 7 8 6 6 6 7 9 8 10 8 7 8 8 6 5 5 4 4 4 4 5 4 5 5 5 5 6 5 4 6 7 7 6 4 6
10 11 12 12 12 10 8 8 7 6 5 4 5 8 10 10 10 8 8 7 8 7 7 7 6 6 6 3 5 5 5 5 3 4 4 4 4 5 5 5 5 6 4
9 10 11 12 12 11 9 7 5 4 3 3 4 7 10 10 10 9 9 8 8 7 8 8 7 7 5 4 5 6 5 3 5 3 2 3 4 4 4 4 5 5 6
7 7 7 8 8 9 9 6 5 4 3 4 6 6 7 8 10 9 10 9 8 8 8 9 8 9 7 6 5 5 5 3 4 3 3 2 3 4 4 4 5 5 6
2 2 2 2 2 2 3 5 7 8 9 10 9 8 6 4 6 8 9 9 8 7 8 9 9 6 7 6 5 5 6 5 5 4 3 4 3 3 3 4 5 4 5
4 3 3 4 4 4 2 2 4 7 8 8 9 9 7 4 2 5 8 7 7 7 8 8 7 7 6 7 5 5 5 5 7 6 6 4 3 2 1 3 3 4 6
7 6 5 5 5 5 4 4 3 5 6 7 9 8 6 3 1 1 5 5 6 6 7 7 7 8 6 7 6 6 6 6 5 5 7 6 5 2 1 2 3 4 4
Wind_Direction
151 138 140 149 147 142 136 133 136 147 149 149 153 154 150 144 136 127 120 112 107 113 123 121 114 112 117 129 133 125 122 120 119 116 113 105 99 95 94 101 110 96 92
145 138 144 150 148 143 138 134 131 139 149 151 153 154 151 147 140 132 124 116 112 112 120 125 119 109 107 116 125 129 130 130 127 123 128 123 111 103 97 72 52 90 103
143 140 150 150 148 143 137 135 133 133 143 149 150 151 151 150 145 139 132 123 116 116 120 126 125 117 111 114 123 131 137 138 135 140 179 156 124 123 117 106 100 110 113
145 147 150 145 148 144 140 137 136 136 139 144 148 150 153 152 149 143 136 129 122 121 125 131 132 133 129 129 133 140 147 150 148 173 203 145 143 134 140 132 131 132 132
147 148 137 149 149 147 144 141 139 140 141 144 148 154 157 156 152 144 134 130 126 123 124 131 136 140 142 142 143 148 154 158 163 214 188 184 168 141 163 160 159 158 157
151 152 138 154 149 148 147 147 145 143 144 146 150 155 157 157 154 148 139 134 132 130 127 129 139 145 149 150 153 159 167 173 196 210 186 209 189 152 180 185 184 179 178
153 149 141 155 152 151 153 154 153 152 151 150 151 154 156 157 155 152 149 145 141 142 146 152 156 161 163 162 166 174 182 194 233 209 205 219 189 153 194 203 204 198 195
153 154 139 153 157 158 162 165 166 165 164 164 163 164 166 166 168 168 170 169 170 174 179 186 188 182 179 179 185 194 206 226 236 235 227 224 159 171 213 218 215 211 208
159 156 153 161 164 165 168 174 176 178 178 180 182 183 187 191 193 194 195 197 199 204 209 209 208 202 200 201 204 210 220 241 265 249 248 243 150 200 231 234 227 219 216
165 165 167 165 168 173 175 177 183 184 185 189 196 197 198 202 207 207 215 197 215 220 222 223 222 219 216 218 220 223 228 238 246 244 233 222 157 222 241 242 238 229 222
175 174 178 167 173 178 179 161 178 182 186 191 195 196 208 220 209 197 203 160 220 228 230 233 236 235 231 219 224 229 233 242 243 250 244 165 170 237 256 254 247 239 230
180 180 186 176 177 181 187 166 193 191 179 210 195 193 212 222 254 258 125 194 230 235 233 230 235 237 239 234 206 207 232 234 255 251 240 157 206 247 256 255 253 248 240
183 185 186 181 188 190 191 189 197 201 182 207 206 211 235 239 217 230 206 191 209 221 223 201 214 227 226 242 261 228 244 252 246 253 238 163 219 254 261 260 256 252 246
188 189 187 186 190 201 205 198 204 206 196 211 195 216 212 220 240 236 237 239 208 210 208 229 208 214 251 255 252 259 256 252 263 272 283 169 237 260 267 266 262 259 255
192 194 190 192 196 199 209 219 214 216 207 209 214 209 228 228 228 239 256 278 270 259 212 223 239 234 251 249 255 258 264 262 266 267 263 225 234 255 270 276 274 271 268
197 197 195 197 200 204 208 216 224 226 215 228 214 214 215 234 240 250 248 250 265 274 277 275 260 251 257 272 270 266 270 275 273 283 283 251 212 225 255 275 282 282 279
202 200 200 201 204 207 212 216 223 228 219 221 217 215 219 232 237 250 262 255 254 257 255 261 269 266 261 263 264 268 268 272 282 283 285 292 274 216 222 256 282 287 285
208 205 205 208 206 211 216 220 224 228 225 223 223 216 218 234 241 252 265 269 262 255 244 240 247 256 256 267 269 271 266 258 260 267 268 266 285 303 264 234 278 285 286
212 211 209 216 214 215 218 219 229 230 232 234 231 233 226 232 241 246 262 273 271 262 254 259 237 257 269 282 275 249 256 251 255 258 275 276 279 292 300 271 246 260 277
214 216 217 216 223 224 225 229 234 237 236 245 252 255 256 250 249 252 256 259 265 265 261 261 265 249 272 275 285 280 263 269 265 268 268 265 270 294 307 322 301 269 254
216 219 221 224 223 226 230 231 233 236 244 259 273 275 271 266 262 255 262 261 255 255 259 259 253 246 245 254 269 266 252 226 243 267 266 290 296 310 309 310 313 324 296
217 221 225 226 230 230 230 233 235 233 235 252 278 286 283 277 269 260 255 262 259 256 255 257 253 270 272 252 277 290 283 217 188 207 241 267 298 302 305 314 327 312 311
214 222 231 236 238 240 238 230 215 204 206 215 233 242 261 280 281 275 268 264 265 260 258 256 251 252 262 259 255 281 294 318 324 188 197 250 283 300 296 329 315 322 316
230 246 262 271 271 267 246 239 234 231 229 224 217 217 218 236 274 280 274 269 264 258 256 256 253 255 256 258 245 251 270 303 294 297 218 181 203 252 298 306 317 327 332
26 39 57 60 57 52 25 325 266 256 251 240 225 219 214 206 243 286 278 269 263 259 255 256 269 258 250 255 255 250 244 235 242 269 287 299 278 250 299 308 329 341 349
39 45 57 70 64 54 42 25 336 301 280 252 229 214 206 191 162 287 290 276 267 261 260 262 264 257 250 252 254 253 252 255 253 256 269 275 280 286 327 334 322 2 14